Regional Weather Roundup
Issued by NWS

Home | Current Version | Previous Version | Graphics & Text | Print | Product List | Glossary On
Versions: 1 2 3 4 5 6 7 8 9 10 11 12 13 14 15 16 17 18 19 20 21 22 23 24 25 26 27 28 29 30 31 32 33 34 35 36 37 38 39 40 41 42 43 44 45 46 47 48 49 50
000
ASUS43 KOAX 231810
RWRNE

WEATHER ROUNDUP FOR NEBRASKA
NATIONAL WEATHER SERVICE OMAHA NE
100 PM CDT MON MAY 23 2016

NOTES: SATELLITE DATA IS BEING USED TO AUGMENT CLOUD COVER ABOVE
       12000 FEET.
       "FAIR" INDICATES FEW OR NO CLOUDS BELOW 12,000 FEET WITH NO
       SIGNIFICANT WEATHER AND/OR OBSTRUCTIONS TO VISIBILITY.

  * THESE STATIONS DO NOT REPORT WEATHER SUCH AS RAIN...SNOW OR FOG.

NEZ001>004-019>022-054>056-231900-
NEBRASKA PANHANDLE

CITY           SKY/WX    TMP DP  RH WIND       PRES   REMARKS
SCOTTSBLUFF    SUNNY     67  35  30 W15       29.85R
6HR MIN TEMP:  45; 6HR MAX TEMP:  67;

ALLIANCE       SUNNY     68  29  23 W14G23    29.83F
6HR MIN TEMP:  42; 6HR MAX TEMP:  69;

CHADRON        SUNNY     69  34  27 SW13      29.80S
6HR MIN TEMP:  40; 6HR MAX TEMP:  69;

KIMBALL        MOSUNNY   67  36  32 SW7       29.90S
SIDNEY         MOSUNNY   68  30  24 NW8       29.89F
6HR MIN TEMP:  50; 6HR MAX TEMP:  68;

$$

NEZ057>060-069>072-079>082-231900-
SOUTHWEST NEBRASKA

CITY           SKY/WX    TMP DP  RH WIND       PRES   REMARKS
NORTH PLATTE   SUNNY     72  45  37 VRB6      29.83F
6HR MIN TEMP:  49; 6HR MAX TEMP:  72;

IMPERIAL       SUNNY     71  37  28 VRB3      29.86F
6HR MIN TEMP:  54; 6HR MAX TEMP:  71;

LEXINGTON      SUNNY     70  54  56 W6        29.83S
MCCOOK         SUNNY     72  51  47 NE5       29.84F
6HR MIN TEMP:  52; 6HR MAX TEMP:  72;

OGALLALA       SUNNY     70  29  21 W3        29.86S
$$

NEZ005>010-023>029-035>040-094-231900-
NORTH CENTRAL NEBRASKA

CITY           SKY/WX    TMP DP  RH WIND       PRES   REMARKS
VALENTINE      SUNNY     72  42  34 SW8       29.78S
6HR MIN TEMP:  50; 6HR MAX TEMP:  72;

AINSWORTH      SUNNY     72  46  40 SW12      29.78F
BROKEN BOW     CLOUDY    70  48  45 VRB6      29.81S
6HR MIN TEMP:  53; 6HR MAX TEMP:  71;

O`NEILL        MOSUNNY   73  51  45 S7        29.79S
ORD            SUNNY     71  56  58 S9        29.79F
6HR MIN TEMP:  55; 6HR MAX TEMP:  71;

THEDFORD       SUNNY     74  39  29 SW7G17    29.82S
$$

NEZ041-046>049-061>064-073>077-083>087-231900-
SOUTH CENTRAL NEBRASKA

CITY           SKY/WX    TMP DP  RH WIND       PRES   REMARKS
GRAND ISLAND   CLOUDY    71  63  75 CALM      29.81S
6HR MIN TEMP:  58; 6HR MAX TEMP:  71; 6HR PCP:  0.01;

AURORA         CLOUDY    72  66  82 SW8       29.80F
HASTINGS       CLOUDY    71  63  75 SW9       29.80F
6HR MIN TEMP:  57; 6HR MAX TEMP:  71; 6HR PCP:  0.09;

HEBRON         CLOUDY    72  64  77 S10       29.80S
HOLDREGE       SUNNY     71  57  60 S3        29.82F
KEARNEY *      SUNNY     72  59  64 S9        29.82F
YORK           CLOUDY    73  64  73 SW9       29.80F
$$

NEZ011>018-030>034-042>045-231900-
NORTHEAST NEBRASKA

CITY           SKY/WX    TMP DP  RH WIND       PRES   REMARKS
NORFOLK        PTSUNNY   74  64  71 SW14      29.77F
6HR MIN TEMP:  60; 6HR MAX TEMP:  74; 6HR PCP:  0.04;

ALBION         PTSUNNY   71  58  63 SW7       29.79F
BLAIR          CLOUDY    68  65  89 SW16G28   29.78F
FREMONT        CLOUDY    70  66  88 SW9       29.80S
TEKAMAH        CLOUDY    71  64  78 SW10      29.77F
6HR MIN TEMP:  69; 6HR MAX TEMP:  78; 6HR PCP: TRACE;

WAYNE          PTSUNNY   75  66  72 SW12      29.77F
$$

NEZ050>053-065>068-078-088>093-231900-
SOUTHEAST NEBRASKA

CITY           SKY/WX    TMP DP  RH WIND       PRES   REMARKS
LINCOLN        PTSUNNY   74  67  78 S9        29.79S
6HR MIN TEMP:  68; 6HR MAX TEMP:  74; 6HR PCP:  0.01;

OMAHA EPPLEY   TSTM      69  66  90 E13       29.77F
6HR MIN TEMP:  68; 6HR MAX TEMP:  76; 6HR PCP:  0.12;

BEATRICE       CLOUDY    74  66  76 S13       29.81R
FALLS CITY     CLOUDY    75  63  66 S10       29.83F
6HR MIN TEMP:  66; 6HR MAX TEMP:  76; 6HR PCP: TRACE;

NEBRASKA CITY  CLOUDY    76  65  69 SE13      29.81F
PLATTSMOUTH    CLOUDY    71  63  77 SE8       29.81F
$$

NEZ044-045-051>053-067-231900-
OMAHA AREA

CITY           SKY/WX    TMP DP  RH WIND       PRES   REMARKS
OMAHA EPPLEY   TSTM      69  66  90 E13       29.77F
6HR MIN TEMP:  68; 6HR MAX TEMP:  76; 6HR PCP:  0.12;

BLAIR          CLOUDY    68  65  89 SW16G28   29.78F
FREMONT        CLOUDY    70  66  88 SW9       29.80S
MILLARD        CLOUDY    69  65  90 SW9       29.78S
OFFUTT AFB     LGT RAIN  68  68 100 E9        29.78S
PLATTSMOUTH    CLOUDY    71  63  77 SE8       29.81F
WAHOO          FAIR      72  66  80 SW12      29.80R
$$



USA.gov is the U.S. government's official web portal to all federal, state and local government web resources and services.